NOAA 16 DEB, 41165

Orbit data source: Space-Track

NOAA 16 DEB, 41165 is space debris in SSO originally from a launch on Thu, 21 Sep 2000 UTC launched from the Air Force Western Test Range (AFWTR). Debris objects in space refer to the collection of defunct objects orbiting the Earth. Examples of debris include non-operational satellites, rocket bodies, and fragments generated from explosions, collisions, or faulty payload assembly.

Loading next visibility...
Identifier
41165, 2000-055CY
Orbit
SSO
Country
Flag of USUS
Related business
Manufacturer
Unknown
Mission
Spacecraft
Bus & Motor
Unknown
Mass
Unknown
Launch date (UTC)
2000-09-21 (26 years ago)
Launch vehicle
Unknown
Launch site
Air Force Western Test Range (AFWTR)
Object type
Payload
Rocket body
Debris
Shape & HBR
Unknown shape, 0.1 m
Radar Cross Section
Medium (>0.1 m² and <1 m²)

Expand to show TLE details & history
Last TLE update: 1 day ago

TLE from 1 day ago
0 NOAA 16 DEB
1 41165U 00055CY  26206.04044722  .00004265  00000-0  16814-2 0  9995
2 41165  98.6079 233.2692 0019271 309.2901  50.6571 14.29533983549266
Epoch: 2026-07-25T00:58Z
TLE epoch observation values (Epoch: 2026-07-25T00:58:14.639Z)
Latitude
-0.00009°
Longitude
-84.05022°
Altitude
787.473 km
Speed
7.465 km/s
True Right ascension
15h 33m 04s
True Declination
0° 00' 00"
Sunlit
Object was in daylight at epoch
Visualization orbit readout
Latitude
Unknown
Longitude
Unknown
Altitude
Unknown
Speed
Unknown
Apparent Right ascension
Unknown
Apparent Declination
Unknown
Sunlit
N/A
Visualization observer readout
Local Sidereal Time
00:37:24
Azimuth
Unknown
Elevation
Unknown
Doppler factor
Unknown
Orbital elements
Apogee altitude
804.244 km
Perigee altitude
776.615 km
Semi-major axis
7,168.567 km
Eccentricity
0.00193
Inclination
98.6079°
RAAN
233.2692°
Arg. of periapsis
309.2901°
True anomaly
50.82814°
Mean anomaly
50.6571°
Eccentric anomaly
50.7426°
Mean motion
3.57598 °/min
Orbital period
100.67 mins
BSTAR
0.0016814
Loading maneuver chart data...
Computing Atmospheric mass density...
Loading historical data...
Loading historical data...
Loading historical data...
Loading historical data...
Loading historical data...
Loading historical data...
Loading historical data...

Documentation

Showing up to 5 results
|